User: anonymous   Login
Location: Caltech
(34.1382°N, 118.1253°W)
Time: 13:39:12
(UTC-07:00)
Language:

Lacrosse 5 rocket - Orbit

View from above orbital plane
View from above orbital plane
View from above satellite
View from above satellite

Ground track
Ground track

The orbit data is extracted from the following two-line orbital elements,

1 28647U 05016B   17198.98637747 0.00000300  00000-0  17678-4 0    05
2 28647  56.9940 250.4975 0122295  26.9439 333.0560 15.04983916    04
Epoch (UTC): 17 July 2017 23:40:23
Eccentricity: 0.0122295
inclination: 56.9940°
perigee height: 467 km
apogee height: 636 km
right ascension of ascending node: 250.4975°
argument of perigee: 26.9439°
revolutions per day: 15.04983916
mean anomaly at epoch: 333.0560°
orbit number at epoch: 0

The dashed part of the orbit path shows where the satellite is in the earth's shadow,  

DLR